Location: Newark
(36.7344°N, 137.0547°E)
Time: 05:42:16
(UTC+00:00)

Envisat - Pass Details

Date: 18 October 2019
Orbit: 764 x 766 km, 98.1° (Epoch: 13 November)

Event Time Altitude Azimuth Distance (km) Brightness Sun altitude
Rises 08:40:01 0° 156° (SSE) 3,218 6.1 -6.3°
Reaches altitude 10° 08:42:20 10° 152° (SSE) 2,296 5.3 -6.8°
Maximum altitude 08:47:18 59° 74° (ENE) 882 3.0 -7.7°
Drops below altitude 10° 08:52:17 10° 356° (N) 2,309 5.5 -8.7°
Sets 08:54:37 0° 352° (N) 3,239 6.3 -9.2°
